Snowfall_Accumulation
0.0 0.0 0.0 0.0 0.0 0.0 0.0 0.0 0.0 0.0 0.0 0.0 0.0 0.0 0.0 0.0 0.0 0.0 0.0 0.0 0.0 12.4 0.6 0.0 0.0 0.1 0.2 0.1 3.1 0.1 1.1 0.0 1.4 4.7 5.6 1.3 3.3 1.6 2.7 2.1 7.1 6.3 6.8 5.6 6.5 14.6 8.6 2.0 1.2 8.0 9.0 4.0 4.1 4.1
0.0 0.0 0.0 0.0 0.0 0.0 0.0 0.0 0.0 0.0 0.0 0.0 0.0 0.0 0.0 0.0 0.0 0.0 0.0 0.0 0.0 2.5 0.9 0.0 0.0 0.0 0.0 0.0 0.3 1.0 0.7 0.7 2.2 4.1 2.5 4.4 5.7 3.5 2.3 3.9 0.9 8.1 8.4 11.5 8.1 9.9 7.4 5.1 6.9 6.7 3.6 2.0 1.7 1.9
0.0 0.0 0.0 0.0 0.0 0.0 0.0 0.0 0.0 0.0 0.0 0.0 0.0 0.0 0.0 0.0 0.0 0.0 0.0 0.0 0.0 6.3 2.8 0.9 0.2 0.0 0.0 0.0 0.0 2.3 0.1 0.2 0.3 0.6 4.5 5.8 6.6 2.3 3.4 1.3 0.6 1.7 1.2 2.0 2.0 2.2 0.5 3.7 2.0 0.9 1.1 2.7 1.9 1.0
0.0 0.0 0.0 0.0 0.0 0.0 0.0 0.0 0.0 0.0 0.0 0.0 0.0 0.0 0.0 0.0 0.0 0.0 0.0 0.0 0.0 6.3 17.7 1.2 0.0 0.0 0.0 0.0 0.0 0.0 0.0 0.1 0.1 0.9 7.5 10.0 6.6 1.0 1.1 0.9 0.1 0.5 0.2 0.2 0.1 0.1 0.2 0.6 0.5 1.1 0.9 0.5 0.5 0.2
0.0 0.0 0.0 0.0 0.0 0.0 0.0 0.0 0.0 0.0 0.0 0.0 0.0 0.0 0.0 0.0 0.0 0.0 0.0 0.0 0.0 2.3 19.1 4.0 0.4 0.1 0.0 0.0 0.0 0.0 0.0 0.0 0.7 5.6 9.7 7.9 2.4 3.3 3.1 2.0 1.9 1.4 2.2 1.8 0.3 0.0 0.9 0.0 0.0 0.0 0.2 0.3 0.1 0.0
0.0 0.0 0.0 0.0 0.0 0.0 0.0 0.0 0.0 0.0 0.0 0.0 0.0 0.0 0.0 0.0 0.0 0.0 2.5 0.0 0.0 0.0 9.3 18.4 0.4 0.3 0.0 0.0 0.0 0.0 0.0 0.1 2.1 5.3 8.0 3.3 2.1 3.4 8.4 3.9 0.8 0.3 0.0 0.9 1.1 0.0 0.4 0.0 0.1 0.0 0.7 0.4 0.2 0.7
0.0 0.0 0.0 0.0 0.0 0.0 0.0 0.0 0.0 0.0 0.0 0.0 0.0 0.0 0.0 0.0 0.0 0.2 3.4 0.0 0.0 0.0 18.1 34.6 17.4 2.7 0.9 0.8 1.4 1.6 1.2 1.4 4.5 10.1 9.6 5.1 5.0 7.3 13.2 7.0 0.5 0.1 0.0 0.0 0.0 0.0 1.0 0.3 0.2 1.1 0.7 0.3 1.7 1.9
0.0 0.0 0.0 0.0 0.0 0.0 0.0 0.0 0.0 0.0 0.0 0.0 0.0 0.0 0.0 0.0 0.0 0.0 0.0 0.0 0.0 1.7 13.4 60.5 36.1 10.2 1.3 2.3 5.7 4.8 5.8 4.6 13.0 11.7 9.7 5.8 6.3 9.8 18.3 1.2 0.2 0.3 0.8 1.7 1.8 1.2 2.5 2.4 2.7 2.7 0.8 2.1 1.9 2.2
0.0 0.0 0.0 0.0 0.0 0.0 0.0 0.0 0.0 0.0 0.0 0.0 0.0 0.0 0.0 0.0 0.1 0.0 0.0 0.0 0.0 0.4 55.0 42.6 27.3 12.5 3.1 2.7 4.0 7.6 9.0 24.5 15.8 19.0 9.8 7.5 17.4 26.5 12.7 3.9 1.0 2.4 5.0 4.2 4.1 3.4 2.3 2.3 3.2 3.5 2.7 2.3 3.7 6.2
0.0 0.0 0.0 0.0 0.0 0.0 0.0 0.0 0.0 0.0 0.0 0.0 0.0 1.4 11.2 2.1 0.0 0.0 0.0 8.6 21.9 32.5 33.2 30.3 11.7 12.0 4.9 6.3 11.3 16.3 20.4 30.0 38.4 22.1 14.3 24.3 20.5 11.0 7.6 7.9 7.5 7.3 6.9 6.9 9.6 7.6 4.6 6.4 5.8 6.4 7.8 8.2 7.6 8.6
0.0 0.0 0.0 0.0 0.0 0.0 0.0 0.0 0.0 0.0 0.0 1.8 13.1 15.5 1.7 0.0 0.8 7.8 34.9 39.8 32.7 35.8 16.1 11.8 7.7 9.7 5.7 17.1 19.9 19.2 31.5 29.2 35.8 19.0 18.2 23.8 19.5 10.3 8.2 10.6 10.3 9.6 9.5 9.6 9.5 10.0 11.8 13.7 14.0 11.8 10.7 12.3 11.4 11.3
0.0 0.0 0.0 0.0 0.0 0.0 0.0 0.0 0.0 0.0 4.1 1.8 1.7 3.2 5.5 20.5 35.4 44.9 42.5 21.9 17.0 15.5 12.7 10.1 6.9 7.4 11.8 10.0 24.0 26.9 28.7 24.5 27.2 10.6 22.0 20.4 11.0 9.7 12.6 13.3 13.2 12.7 12.2 11.7 11.2 12.3 11.6 12.0 12.8 12.7 13.0 13.5 12.2 11.1
0.0 0.0 0.0 0.0 0.0 0.0 0.0 0.0 0.0 0.0 0.0 2.3 18.9 35.0 33.8 37.7 54.3 40.9 25.0 16.4 15.7 10.1 11.1 9.9 12.0 11.9 14.7 17.8 28.9 26.5 31.2 23.5 11.2 17.7 16.1 13.9 10.3 11.2 13.4 15.2 15.8 14.9 13.4 12.6 12.7 11.3 10.9 11.7 11.3 10.4 10.9 9.2 8.9 8.5
0.0 0.0 0.0 0.0 0.0 0.0 0.0 0.0 0.0 0.0 3.6 21.8 39.3 47.0 31.2 29.7 16.3 13.8 10.7 9.8 9.1 11.3 13.2 14.7 16.3 16.7 14.8 24.2 20.8 29.1 19.0 11.6 23.7 19.1 15.5 12.8 13.1 12.6 12.1 13.1 13.1 13.6 13.5 12.7 14.9 14.4 12.6 11.0 10.4 9.2 9.3 10.3 9.2 8.8
0.0 0.0 0.0 0.0 0.0 0.0 0.0 0.0 0.0 0.2 11.0 39.7 31.2 30.0 17.3 10.3 8.7 10.1 9.7 9.7 11.2 13.1 17.8 19.6 19.5 18.4 22.0 27.7 18.2 13.6 21.5 21.6 18.3 16.3 14.8 15.2 15.2 14.6 14.1 13.1 12.0 11.0 11.8 11.3 11.2 11.3 12.4 10.1 8.0 7.3 9.0 8.8 8.0 7.8
0.0 0.0 0.0 0.0 0.0 0.0 0.0 0.3 1.5 12.6 25.5 34.1 27.7 15.5 6.5 6.1 6.3 4.9 7.6 8.8 9.4 12.5 13.3 17.7 19.0 22.1 21.8 18.9 20.1 17.1 16.6 17.6 18.3 18.5 17.4 15.7 15.4 14.7 14.9 13.9 13.4 13.0 12.9 13.0 11.9 12.4 10.9 11.3 12.9 13.2 9.9 8.7 8.3 7.9
0.0 3.7 0.0 0.0 0.0 0.3 0.4 1.7 23.6 48.6 50.1 38.3 16.6 8.8 8.9 5.7 5.6 5.7 6.1 6.2 5.3 9.1 12.1 13.8 21.9 16.9 16.0 18.5 15.8 12.7 17.6 18.9 16.8 14.4 13.1 13.4 12.5 12.3 11.7 10.3 9.5 8.2 7.6 8.1 9.3 10.4 11.8 12.4 12.0 10.5 11.2 13.4 11.9 11.5
2.2 0.0 0.0 0.0 0.2 1.0 26.1 28.0 46.8 51.0 40.8 17.3 9.0 9.5 5.4 4.4 3.2 2.7 3.4 4.5 6.4 6.7 8.6 12.9 7.3 10.2 10.5 10.3 11.9 15.3 12.6 10.3 9.1 9.4 9.7 10.3 9.7 9.2 8.5 8.2 7.6 7.2 7.1 8.0 8.4 8.5 7.8 7.6 7.8 10.2 10.1 10.2 7.7 9.1
3.7 1.1 0.0 0.3 0.1 15.6 54.7 65.1 42.0 38.3 15.2 8.5 9.4 7.4 3.9 2.0 1.1 2.0 3.0 3.8 5.4 5.3 6.9 12.6 14.5 7.7 7.2 9.9 10.5 10.8 10.5 7.9 7.8 7.6 8.3 8.9 8.9 8.8 8.9 8.3 7.7 7.7 9.0 9.2 7.0 8.1 8.9 8.2 9.9 8.6 9.1 6.3 7.7 9.2
1.6 0.9 1.2 2.1 1.3 38.8 62.0 50.4 22.8 16.0 12.1 8.7 6.0 6.5 4.0 2.6 2.9 2.4 4.1 5.2 7.3 10.4 14.6 17.3 12.3 12.0 12.0 12.8 10.8 9.9 9.1 7.4 5.9 5.5 6.3 5.9 6.3 5.6 5.8 5.6 6.2 7.1 6.3 5.1 4.9 5.8 5.0 4.4 4.7 5.9 7.2 7.2 6.1 8.0
4.7 12.9 9.7 5.8 21.8 28.7 39.2 31.6 21.6 9.7 6.9 4.9 8.5 4.4 5.0 3.6 4.1 5.2 5.7 6.5 11.1 16.3 14.3 12.7 12.8 13.3 12.0 11.5 9.9 8.0 7.9 7.3 7.3 6.8 6.6 6.6 5.8 4.2 3.7 3.3 2.6 2.1 1.6 2.2 1.6 2.1 2.1 2.2 2.8 2.0 1.9 2.6 2.7 3.4
11.9 9.3 27.0 20.5 55.9 51.5 41.2 21.5 13.2 7.0 4.4 6.8 3.7 3.4 4.7 4.5 4.7 6.1 5.5 9.3 15.7 12.9 12.1 13.6 13.7 12.1 9.2 8.8 10.6 9.6 9.3 7.0 6.3 5.2 5.4 4.3 2.9 2.6 2.2 2.3 1.6 1.6 1.3 1.1 0.8 0.6 0.4 0.5 1.4 0.6 0.7 1.1 0.9 0.5
3.5 11.7 40.9 44.2 56.6 49.6 36.6 11.7 10.8 8.6 6.3 6.0 2.7 3.9 5.9 4.3 4.4 4.7 10.2 8.5 8.6 10.1 11.6 11.0 10.0 11.5 11.2 10.9 9.4 7.7 5.8 4.1 3.6 3.2 2.5 2.0 1.9 1.6 1.7 1.0 1.3 1.0 1.0 0.5 0.2 0.4 0.3 0.7 0.4 0.3 0.2 0.1 1.2 1.8
3.2 44.1 57.6 57.0 40.1 34.5 19.9 17.3 11.1 6.9 7.8 6.2 4.7 5.1 4.1 2.8 6.3 8.5 9.8 6.2 7.4 7.9 8.8 9.4 7.8 8.4 7.9 8.2 8.3 7.7 6.3 4.5 2.8 2.0 2.5 1.6 1.3 1.1 1.1 1.3 0.9 0.6 0.9 0.8 0.4 0.4 0.3 0.3 0.6 0.2 0.1 0.1 0.8 1.6
64.9 76.3 52.1 51.2 28.0 16.0 10.3 7.3 6.5 6.8 6.7 4.7 4.4 3.4 3.5 4.3 7.0 6.7 4.2 4.9 5.6 6.5 7.7 7.7 6.5 6.7 6.1 5.8 5.5 4.7 3.9 3.6 4.6 3.9 1.4 2.8 2.9 2.0 1.0 0.6 0.6 0.9 0.6 0.8 0.5 0.5 0.4 0.3 0.3 0.2 0.1 1.3 2.2 2.6
69.9 35.6 26.5 11.9 7.4 4.6 3.2 2.9 3.3 3.5 3.4 5.4 6.4 5.4 4.3 6.2 8.4 6.5 2.7 4.6 5.7 6.3 6.0 4.6 4.6 3.7 2.9 3.3 3.8 3.7 3.7 2.6 2.3 3.5 2.6 3.0 2.7 3.4 2.6 0.6 1.9 0.9 1.0 1.2 1.9 1.5 0.9 0.6 0.5 0.2 1.0 1.4 2.2 4.0
46.5 25.0 9.0 1.8 2.7 2.7 2.7 2.8 3.2 3.7 4.4 5.5 4.3 3.8 4.2 11.1 3.6 3.3 4.9 5.4 4.6 3.6 1.8 2.5 4.4 4.0 3.2 3.0 2.3 2.9 3.1 3.4 2.9 1.8 2.2 4.8 4.5 3.4 2.6 3.4 3.2 1.9 2.0 2.0 2.5 2.7 2.7 1.6 1.4 1.5 2.1 2.3 2.3 3.5
11.2 5.6 3.4 3.0 2.6 1.7 2.0 2.1 2.9 4.4 4.4 3.6 4.2 3.9 4.3 2.4 3.0 4.5 4.9 5.2 1.9 0.2 1.3 2.0 2.5 3.5 3.2 2.9 3.0 3.7 3.8 3.7 3.9 3.7 5.1 5.7 5.7 5.6 5.3 4.3 3.4 4.9 5.8 3.3 5.0 5.3 4.4 3.9 2.9 3.4 3.2 3.0 1.7 2.1
2.5 2.3 3.3 4.2 3.3 2.5 2.3 2.0 1.6 2.3 2.3 2.7 1.9 1.6 2.4 3.6 5.0 4.6 4.4 2.1 0.1 0.9 1.0 1.6 2.2 2.5 3.4 3.7 3.5 4.1 4.2 4.3 3.9 3.0 2.4 2.6 4.4 6.3 6.0 5.3 5.8 5.8 4.0 4.1 3.4 6.0 7.2 10.7 12.3 13.8 8.5 6.7 5.1 4.5
0.4 0.2 0.3 0.3 1.5 3.1 2.2 1.9 1.6 2.4 2.4 2.2 1.8 2.1 2.6 4.7 7.5 5.9 1.6 0.3 0.0 1.4 1.9 2.5 2.5 2.8 4.0 3.9 4.4 3.9 4.8 5.0 4.9 4.4 4.8 2.5 3.4 4.2 5.9 5.9 6.1 6.4 6.6 6.5 7.3 7.3 6.6 8.5 7.1 7.9 7.3 6.8 6.8 6.0
0.2 0.0 0.2 0.2 0.3 1.1 1.8 2.0 2.3 2.1 2.1 2.3 1.5 0.9 1.8 3.7 5.3 3.8 0.7 0.7 1.4 2.0 2.7 3.5 4.3 5.1 5.3 5.5 5.5 6.1 6.3 6.9 7.1 7.5 8.3 8.4 6.7 5.8 6.5 7.6 7.3 7.8 8.0 7.7 7.0 6.5 6.7 6.3 5.9 6.1 5.8 5.7 5.1 5.9
0.3 0.1 0.0 0.1 0.1 0.6 0.9 1.4 1.1 1.8 2.7 2.1 2.8 2.5 2.7 2.3 2.1 2.0 1.8 1.3 1.8 2.3 3.3 3.7 4.4 5.4 6.2 6.2 6.8 7.2 8.5 7.8 7.2 9.2 9.1 7.8 8.8 7.3 8.4 8.9 8.5 7.8 9.3 9.5 8.3 9.1 8.9 9.0 8.0 7.5 7.7 7.0 7.1 6.9
2.0 1.2 0.8 0.6 1.0 1.1 0.5 0.5 0.7 1.3 1.0 1.4 1.9 2.2 2.5 2.3 1.9 2.1 2.4 2.3 2.7 2.6 2.8 4.3 5.0 4.9 4.8 5.0 5.8 6.3 6.9 6.7 7.9 10.5 12.6 14.2 14.6 17.3 17.2 11.6 9.1 10.2 10.5 9.6 9.1 10.1 10.5 9.7 9.4 8.3 8.5 8.6 7.6 7.4